ProjectID,Date,Electric Generation,Electric Utility Import,Facility Electric Load
,YYYY-MM-DD,kW,kW,kW
476,2009-09-01,0.0,,0.0
476,2009-09-02,0.0,,0.0
476,2009-09-03,0.0,,0.0
476,2009-09-04,0.0,,0.0
476,2009-09-05,0.0,,0.0
476,2009-09-06,0.0,,0.0
476,2009-09-07,0.0,,0.0
476,2009-09-08,0.0,,0.0
476,2009-09-09,0.0,,0.0
476,2009-09-10,0.0,,0.0
476,2009-09-11,0.0,,0.0
476,2009-09-12,0.0,,0.0
476,2009-09-13,0.0,,0.0
476,2009-09-14,0.0,,0.0
476,2009-09-15,0.0,,0.0
476,2009-09-16,0.0,,0.0
476,2009-09-17,0.0,,0.0
476,2009-09-18,0.0,,0.0
476,2009-09-19,0.0,,0.0
476,2009-09-20,0.0,,0.0
476,2009-09-21,0.0,,0.0
476,2009-09-22,0.0,,0.0
476,2009-09-23,0.0,,0.0
476,2009-09-24,0.0,,0.0
476,2009-09-25,0.0,,0.0
476,2009-09-26,0.0,,0.0
476,2009-09-27,0.0,,0.0
476,2009-09-28,0.0,,0.0
476,2009-09-29,0.0,,0.0
476,2009-09-30,0.0,,0.0
476,2009-10-01,0.0,,0.0
476,2009-10-02,0.0,,0.0
476,2009-10-03,0.0,,0.0
476,2009-10-04,0.0,,0.0
476,2009-10-05,0.0,,0.0
476,2009-10-06,0.0,,0.0
476,2009-10-07,0.0,,0.0
476,2009-10-08,0.0,,0.0
476,2009-10-09,0.0,,0.0
476,2009-10-10,0.0,,0.0
476,2009-10-11,0.0,,0.0
476,2009-10-12,0.0,,0.0
476,2009-10-13,0.0,,0.0
476,2009-10-14,0.0,,0.0
476,2009-10-15,0.0,,0.0
476,2009-10-16,0.0,,0.0
476,2009-10-17,0.0,,0.0
476,2009-10-18,0.0,,0.0
476,2009-10-19,0.0,,0.0
476,2009-10-20,0.0,,0.0
476,2009-10-21,0.0,,0.0
476,2009-10-22,0.0,,0.0
476,2009-10-23,0.0,,0.0
476,2009-10-24,0.0,,0.0
476,2009-10-25,0.0,,0.0
476,2009-10-26,0.0,,0.0
476,2009-10-27,0.0,,0.0
476,2009-10-28,0.0,,0.0
476,2009-10-29,0.0,,0.0
476,2009-10-30,0.0,,0.0
476,2009-10-31,0.0,,0.0
476,2009-11-01,0.0,,0.0
476,2009-11-02,0.0,,0.0
476,2009-11-03,0.0,,0.0
476,2009-11-04,0.0,,0.0
476,2009-11-05,0.0,,0.0
476,2009-11-06,0.0,,0.0
476,2009-11-07,0.0,,0.0
476,2009-11-08,0.0,,0.0
476,2009-11-09,0.0,,0.0
476,2009-11-10,0.0,,0.0
476,2009-11-11,0.0,,0.0
476,2009-11-12,0.0,,0.0
476,2009-11-13,0.0,,0.0
476,2009-11-14,0.0,,0.0
476,2009-11-15,0.0,,0.0
476,2009-11-16,0.0,,0.0
476,2009-11-17,0.0,,0.0
476,2009-11-18,0.0,,0.0
476,2009-11-19,0.0,,0.0
476,2009-11-20,0.0,,0.0
476,2009-11-21,0.0,,0.0
476,2009-11-22,0.0,,0.0
476,2009-11-23,0.0,,0.0
476,2009-11-24,0.0,,0.0
476,2009-11-25,0.0,,0.0
476,2009-11-26,0.0,,0.0
476,2009-11-27,0.0,,0.0
476,2009-11-28,0.0,,0.0
476,2009-11-29,0.0,,0.0
476,2009-11-30,0.0,,0.0
476,2009-12-01,0.0,,0.0
476,2009-12-02,0.0,,0.0
476,2009-12-03,0.0,,0.0
476,2009-12-04,0.0,,0.0
476,2009-12-05,0.0,,0.0
476,2009-12-06,0.0,,0.0
476,2009-12-07,0.0,,0.0
476,2009-12-08,0.0,,0.0
476,2009-12-09,0.0,,0.0
476,2009-12-10,0.0,,0.0
476,2009-12-11,0.0,,0.0
476,2009-12-12,0.0,,0.0
476,2009-12-13,0.0,,0.0
476,2009-12-14,0.0,,0.0
476,2009-12-15,0.0,,0.0
476,2009-12-16,0.0,,0.0
476,2009-12-17,0.0,,0.0
476,2009-12-18,0.0,,0.0
476,2009-12-19,0.0,,0.0
476,2009-12-20,0.0,,0.0
476,2009-12-21,0.0,,0.0
476,2009-12-22,0.0,,0.0
476,2009-12-23,0.0,,0.0
476,2009-12-24,0.0,,0.0
476,2009-12-25,0.0,,0.0
476,2009-12-26,0.0,,0.0
476,2009-12-27,0.0,,0.0
476,2009-12-28,0.0,,0.0
476,2009-12-29,0.0,,0.0
476,2009-12-30,0.0,,0.0
476,2009-12-31,0.0,,0.0
476,2010-01-01,0.0,,0.0
476,2010-01-02,0.0,,0.0
476,2010-01-03,0.0,,0.0
476,2010-01-04,0.0,,0.0
476,2010-01-05,0.0,,0.0
476,2010-01-06,0.0,,0.0
476,2010-01-07,0.0,,0.0
476,2010-01-08,0.0,,0.0
476,2010-01-09,0.0,,0.0
476,2010-01-10,0.0,,0.0
476,2010-01-11,0.0,,0.0
476,2010-01-12,0.0,,0.0
476,2010-01-13,0.0,,0.0
476,2010-01-14,0.0,,0.0
476,2010-01-15,0.0,,0.0
476,2010-01-16,0.0,,0.0
476,2010-01-17,0.0,,0.0
476,2010-01-18,0.0,,0.0
476,2010-01-19,0.0,,0.0
476,2010-01-20,0.0,,0.0
476,2010-01-21,0.0,,0.0
476,2010-01-22,0.0,,0.0
476,2010-01-23,0.0,,0.0
476,2010-01-24,0.0,,0.0
476,2010-01-25,0.0,,0.0
476,2010-01-26,0.0,,0.0
476,2010-01-27,0.0,,0.0
476,2010-01-28,0.0,,0.0
476,2010-01-29,0.0,,0.0
476,2010-01-30,0.0,,0.0
476,2010-01-31,0.0,,0.0
476,2010-02-01,0.0,,0.0
476,2010-02-02,0.0,,0.0
476,2010-02-03,0.0,,0.0
476,2010-02-04,0.0,,0.0
476,2010-02-05,0.0,,0.0
476,2010-02-06,0.0,,0.0
476,2010-02-07,0.0,,0.0
476,2010-02-08,0.0,,0.0
476,2010-02-09,0.0,,0.0
476,2010-02-10,0.0,,0.0
476,2010-02-11,0.0,,0.0
476,2010-02-12,0.0,,0.0
476,2010-02-13,0.0,,0.0
476,2010-02-14,0.0,,0.0
476,2010-02-15,0.0,,0.0
476,2010-02-16,0.0,,0.0
476,2010-02-17,0.0,,0.0
476,2010-02-18,0.0,,0.0
476,2010-02-19,0.0,,0.0
476,2010-02-20,0.0,,0.0
476,2010-02-21,0.0,,0.0
476,2010-02-22,0.0,,0.0
476,2010-02-23,0.0,,0.0
476,2010-02-24,0.0,,0.0
476,2010-02-25,0.0,,0.0
476,2010-02-26,0.0,,0.0
476,2010-02-27,0.0,,0.0
476,2010-02-28,0.0,,0.0
476,2010-03-01,0.0,,0.0
476,2010-03-02,0.0,,0.0
476,2010-03-03,0.0,,0.0
476,2010-03-04,0.0,,0.0
476,2010-03-05,0.0,,0.0
476,2010-03-06,0.0,,0.0
476,2010-03-07,0.0,,0.0
476,2010-03-08,0.0,,0.0
476,2010-03-09,0.0,,0.0
476,2010-03-10,0.0,,0.0
476,2010-03-11,0.0,,0.0
476,2010-03-12,0.0,,0.0
476,2010-03-13,0.0,,0.0
476,2010-03-14,0.0,,0.0
476,2010-03-15,0.0,,0.0
476,2010-03-16,0.0,,0.0
476,2010-03-17,0.0,,0.0
476,2010-03-18,0.0,,0.0
476,2010-03-19,0.0,,0.0
476,2010-03-20,0.0,,0.0
476,2010-03-21,0.0,,0.0
476,2010-03-22,0.0,,0.0
476,2010-03-23,0.0,,0.0
476,2010-03-24,0.0,,0.0
476,2010-03-25,0.0,,0.0
476,2010-03-26,0.0,,0.0
476,2010-03-27,0.0,,0.0
476,2010-03-28,0.0,,0.0
476,2010-03-29,0.0,,0.0
476,2010-03-30,0.0,,0.0
476,2010-03-31,0.0,,0.0
476,2010-04-01,0.0,,0.0
476,2010-04-02,0.0,,0.0
476,2010-04-03,0.0,,0.0
476,2010-04-04,0.0,,0.0
476,2010-04-05,0.0,,0.0
476,2010-04-06,0.0,,0.0
476,2010-04-07,0.0,,0.0
476,2010-04-08,74.50133333333333,,74.50133333333333
476,2010-04-09,60.07683333333333,,60.07683333333333
476,2010-04-10,79.51704166666667,,79.51704166666667
476,2010-04-11,113.86891666666666,,113.86891666666666
476,2010-04-12,55.10725,,55.10725
476,2010-04-13,87.45241666666668,,87.45241666666668
476,2010-04-14,142.40654166666667,,142.40654166666667
476,2010-04-15,87.76383333333332,,87.76383333333332
476,2010-04-16,73.83633333333333,,73.83633333333333
476,2010-04-17,142.63008333333332,,142.63008333333332
476,2010-04-18,142.80079166666667,,142.80079166666667
476,2010-04-19,142.78995833333332,,142.78995833333332
476,2010-04-20,142.97079166666666,,142.97079166666666
476,2010-04-21,142.900125,,142.900125
476,2010-04-22,119.90350000000001,,119.90350000000001
476,2010-04-23,143.05775,,143.05775
476,2010-04-24,143.97970833333332,,143.97970833333332
476,2010-04-25,142.66625,,142.66625
476,2010-04-26,142.390375,,142.390375
476,2010-04-27,143.37337499999998,,143.37337499999998
476,2010-04-28,143.16570833333333,,143.16570833333333
476,2010-04-29,143.574375,,143.574375
476,2010-04-30,143.04575,,143.04575
476,2010-05-01,142.29341666666667,,142.29341666666667
476,2010-05-02,142.40645833333335,,142.40645833333335
476,2010-05-03,139.63866666666667,,139.63866666666667
476,2010-05-04,142.4295,,142.4295
476,2010-05-05,142.31833333333333,,142.31833333333333
476,2010-05-06,142.28854166666667,,142.28854166666667
476,2010-05-07,141.51304166666668,,141.51304166666668
476,2010-05-08,141.69525000000002,,141.69525000000002
476,2010-05-09,88.3175,,88.3175
476,2010-05-10,129.46079166666667,,129.46079166666667
476,2010-05-11,142.47104166666665,,142.47104166666665
476,2010-05-12,142.61854166666666,,142.61854166666666
476,2010-05-13,142.31904166666666,,142.31904166666666
476,2010-05-14,140.50216666666668,,140.50216666666668
476,2010-05-15,134.22920833333333,,134.22920833333333
476,2010-05-16,141.98904166666668,,141.98904166666668
476,2010-05-17,142.47433333333333,,142.47433333333333
476,2010-05-18,142.68545833333334,,142.68545833333334
476,2010-05-19,142.68145833333332,,142.68145833333332
476,2010-05-20,142.74583333333334,,142.74583333333334
476,2010-05-21,142.51516666666666,,142.51516666666666
476,2010-05-22,142.1665,,142.1665
476,2010-05-23,142.206375,,142.206375
476,2010-05-24,142.285125,,142.285125
476,2010-05-25,141.7585,,141.7585
476,2010-05-26,86.37808333333334,,86.37808333333334
476,2010-05-27,126.54008333333333,,126.54008333333333
476,2010-05-28,142.28108333333333,,142.28108333333333
476,2010-05-29,141.90045833333332,,141.90045833333332
476,2010-05-30,141.06975,,141.06975
476,2010-05-31,143.36283333333333,,143.36283333333333
476,2010-06-01,140.32729166666667,,140.32729166666667
476,2010-06-02,143.481875,,143.481875
476,2010-06-03,141.79420833333333,,141.79420833333333
476,2010-06-04,143.50075,,143.50075
476,2010-06-05,142.17645833333333,,142.17645833333333
476,2010-06-06,141.17220833333332,,141.17220833333332
476,2010-06-07,133.27733333333333,,133.27733333333333
476,2010-06-08,133.30620833333333,,133.30620833333333
476,2010-06-09,141.05362499999998,,141.05362499999998
476,2010-06-10,143.26079166666668,,143.26079166666668
476,2010-06-11,142.94695833333333,,142.94695833333333
476,2010-06-12,143.591375,,143.591375
476,2010-06-13,143.22045833333334,,143.22045833333334
476,2010-06-14,143.35429166666668,,143.35429166666668
476,2010-06-15,143.03216666666665,,143.03216666666665
476,2010-06-16,142.30895833333332,,142.30895833333332
476,2010-06-17,143.319625,,143.319625
476,2010-06-18,143.399,,143.399
476,2010-06-19,143.40495833333333,,143.40495833333333
476,2010-06-20,142.61866666666666,,142.61866666666666
476,2010-06-21,142.135875,,142.135875
476,2010-06-22,143.12208333333334,,143.12208333333334
476,2010-06-23,142.55366666666666,,142.55366666666666
476,2010-06-24,136.282375,,136.282375
476,2010-06-25,142.50591666666665,,142.50591666666665
476,2010-06-26,142.464125,,142.464125
476,2010-06-27,141.647625,,141.647625
476,2010-06-28,141.13441666666668,,141.13441666666668
476,2010-06-29,142.140375,,142.140375
476,2010-06-30,135.14970833333334,,135.14970833333334
476,2010-07-01,133.420875,,133.420875
476,2010-07-02,131.08929166666667,,131.08929166666667
476,2010-07-03,133.642125,,133.642125
476,2010-07-04,142.39966666666666,,142.39966666666666
476,2010-07-05,142.43779166666667,,142.43779166666667
476,2010-07-06,17.682666666666666,,17.682666666666666
476,2010-07-07,129.44158333333334,,129.44158333333334
476,2010-07-08,142.07500000000002,,142.07500000000002
476,2010-07-09,140.86104166666667,,140.86104166666667
476,2010-07-10,135.44275000000002,,135.44275000000002
476,2010-07-11,140.00795833333333,,140.00795833333333
476,2010-07-12,141.09016666666668,,141.09016666666668
476,2010-07-13,143.58504166666668,,143.58504166666668
476,2010-07-14,142.979375,,142.979375
476,2010-07-15,142.668375,,142.668375
476,2010-07-16,142.49620833333333,,142.49620833333333
476,2010-07-17,140.00358333333332,,140.00358333333332
476,2010-07-18,140.72229166666668,,140.72229166666668
476,2010-07-19,140.98387499999998,,140.98387499999998
476,2010-07-20,141.38820833333332,,141.38820833333332
476,2010-07-21,140.90541666666667,,140.90541666666667
476,2010-07-22,141.389625,,141.389625
476,2010-07-23,142.309875,,142.309875
476,2010-07-24,139.2475,,139.2475
476,2010-07-25,141.718375,,141.718375
476,2010-07-26,138.94441666666668,,138.94441666666668
476,2010-07-27,142.263125,,142.263125
476,2010-07-28,142.678875,,142.678875
476,2010-07-29,142.16675,,142.16675
476,2010-07-30,143.137375,,143.137375
476,2010-07-31,143.18045833333335,,143.18045833333335
476,2010-08-01,143.083125,,143.083125
476,2010-08-02,143.20820833333332,,143.20820833333332
476,2010-08-03,143.48420833333333,,143.48420833333333
476,2010-08-04,143.288375,,143.288375
476,2010-08-05,141.12383333333335,,141.12383333333335
476,2010-08-06,142.13241666666667,,142.13241666666667
476,2010-08-07,143.63566666666665,,143.63566666666665
476,2010-08-08,142.99770833333335,,142.99770833333335
476,2010-08-09,142.80904166666667,,142.80904166666667
476,2010-08-10,142.13320833333333,,142.13320833333333
476,2010-08-11,141.65824999999998,,141.65824999999998
476,2010-08-12,142.98204166666667,,142.98204166666667
476,2010-08-13,143.03025,,143.03025
476,2010-08-14,143.11825000000002,,143.11825000000002
476,2010-08-15,143.00720833333332,,143.00720833333332
476,2010-08-16,143.4715,,143.4715
476,2010-08-17,143.20158333333333,,143.20158333333333
476,2010-08-18,143.02541666666667,,143.02541666666667
476,2010-08-19,139.33354166666666,,139.33354166666666
476,2010-08-20,142.46525,,142.46525
476,2010-08-21,143.265875,,143.265875
476,2010-08-22,143.14991666666666,,143.14991666666666
476,2010-08-23,141.96495833333333,,141.96495833333333
476,2010-08-24,136.26591666666667,,136.26591666666667
476,2010-08-25,133.11808333333332,,133.11808333333332
476,2010-08-26,135.54195833333333,,135.54195833333333
476,2010-08-27,140.62550000000002,,140.62550000000002
476,2010-08-28,136.43245833333333,,136.43245833333333
476,2010-08-29,141.22912499999998,,141.22912499999998
476,2010-08-30,142.17066666666668,,142.17066666666668
476,2010-08-31,141.22116666666668,,141.22116666666668
476,2010-09-01,142.44154166666667,,142.44154166666667
476,2010-09-02,142.75183333333334,,142.75183333333334
476,2010-09-03,141.935,,141.935
476,2010-09-04,138.779875,,138.779875
476,2010-09-05,127.82245833333333,,127.82245833333333
476,2010-09-06,143.44825,,143.44825
476,2010-09-07,141.5695,,141.5695
476,2010-09-08,141.34958333333333,,141.34958333333333
476,2010-09-09,123.97224999999999,,123.97224999999999
476,2010-09-10,122.82758333333334,,122.82758333333334
476,2010-09-11,139.97745833333332,,139.97745833333332
476,2010-09-12,129.4955,,129.4955
476,2010-09-13,139.42545833333332,,139.42545833333332
476,2010-09-14,140.15179166666667,,140.15179166666667
476,2010-09-15,139.65816666666666,,139.65816666666666
476,2010-09-16,140.86645833333333,,140.86645833333333
476,2010-09-17,136.89175,,136.89175
476,2010-09-18,137.99270833333333,,137.99270833333333
476,2010-09-19,140.73325,,140.73325
476,2010-09-20,132.27770833333332,,132.27770833333332
476,2010-09-21,134.6305,,134.6305
476,2010-09-22,130.62483333333333,,130.62483333333333
476,2010-09-23,140.93425,,140.93425
476,2010-09-24,128.00229166666665,,128.00229166666665
476,2010-09-25,139.99075,,139.99075
476,2010-09-26,131.335,,131.335
476,2010-09-27,140.420375,,140.420375
476,2010-09-28,142.79179166666668,,142.79179166666668
476,2010-09-29,140.17791666666668,,140.17791666666668
476,2010-09-30,142.91520833333334,,142.91520833333334
476,2010-10-01,133.37291666666667,,133.37291666666667
476,2010-10-02,140.33504166666668,,140.33504166666668
476,2010-10-03,142.36829166666666,,142.36829166666666
476,2010-10-04,139.40004166666668,,139.40004166666668
476,2010-10-05,105.20299999999999,,105.20299999999999
476,2010-10-06,70.73416666666667,,70.73416666666667
476,2010-10-07,109.096875,,109.096875
476,2010-10-08,140.479375,,140.479375
476,2010-10-09,142.15754166666667,,142.15754166666667
476,2010-10-10,141.91662499999998,,141.91662499999998
476,2010-10-11,142.87337499999998,,142.87337499999998
476,2010-10-12,143.30441666666667,,143.30441666666667
476,2010-10-13,143.09804166666666,,143.09804166666666
476,2010-10-14,142.41383333333332,,142.41383333333332
476,2010-10-15,132.57479166666667,,132.57479166666667
476,2010-10-16,142.67925,,142.67925
476,2010-10-17,142.59945833333333,,142.59945833333333
476,2010-10-18,142.75300000000001,,142.75300000000001
476,2010-10-19,143.367,,143.367
476,2010-10-20,141.89895833333333,,141.89895833333333
476,2010-10-21,134.57916666666668,,134.57916666666668
476,2010-10-22,128.967875,,128.967875
476,2010-10-23,135.93454166666666,,135.93454166666666
476,2010-10-24,141.81075,,141.81075
476,2010-10-25,141.88058333333333,,141.88058333333333
476,2010-10-26,141.69429166666666,,141.69429166666666
476,2010-10-27,141.20208333333332,,141.20208333333332
476,2010-10-28,141.6465,,141.6465
476,2010-10-29,136.80125,,136.80125
476,2010-10-30,49.364625,,49.364625
476,2010-10-31,-2.823166666666667,,-2.823166666666667
476,2010-11-01,75.99370833333333,,75.99370833333333
476,2010-11-02,131.36208333333335,,131.36208333333335
476,2010-11-03,136.23654166666668,,136.23654166666668
476,2010-11-04,125.721625,,125.721625
476,2010-11-05,136.55212500000002,,136.55212500000002
476,2010-11-06,131.29125,,131.29125
476,2010-11-07,137.08883333333333,,137.08883333333333
476,2010-11-08,126.53158333333333,,126.53158333333333
476,2010-11-09,136.78875,,136.78875
476,2010-11-10,120.60595833333333,,120.60595833333333
476,2010-11-11,133.92604166666666,,133.92604166666666
476,2010-11-12,131.50125,,131.50125
476,2010-11-13,137.021625,,137.021625
476,2010-11-14,132.43829166666666,,132.43829166666666
476,2010-11-15,135.67729166666666,,135.67729166666666
476,2010-11-16,136.27725,,136.27725
476,2010-11-17,136.17483333333334,,136.17483333333334
476,2010-11-18,128.59891666666667,,128.59891666666667
476,2010-11-19,121.52354166666667,,121.52354166666667
476,2010-11-20,120.54395833333332,,120.54395833333332
476,2010-11-21,131.36741666666668,,131.36741666666668
476,2010-11-22,133.63266666666667,,133.63266666666667
476,2010-11-23,134.85308333333333,,134.85308333333333
476,2010-11-24,121.86616666666667,,121.86616666666667
476,2010-11-25,132.24741666666668,,132.24741666666668
476,2010-11-26,122.54312499999999,,122.54312499999999
476,2010-11-27,131.81225,,131.81225
476,2010-11-28,133.814,,133.814
476,2010-11-29,135.58770833333332,,135.58770833333332
476,2010-11-30,135.58558333333335,,135.58558333333335
476,2010-12-01,128.78408333333334,,128.78408333333334
476,2010-12-02,121.36570833333333,,121.36570833333333
476,2010-12-03,116.93558333333334,,116.93558333333334
476,2010-12-04,118.53525,,118.53525
476,2010-12-05,116.88654166666667,,116.88654166666667
476,2010-12-06,116.160625,,116.160625
476,2010-12-07,112.75,,112.75
476,2010-12-08,116.76549999999999,,116.76549999999999
476,2010-12-09,116.14299999999999,,116.14299999999999
476,2010-12-10,113.51166666666667,,113.51166666666667
476,2010-12-11,124.32925,,124.32925
476,2010-12-12,124.56029166666667,,124.56029166666667
476,2010-12-13,123.76595833333333,,123.76595833333333
476,2010-12-14,115.83579166666668,,115.83579166666668
476,2010-12-15,115.318,,115.318
476,2010-12-16,114.53083333333332,,114.53083333333332
476,2010-12-17,113.28083333333332,,113.28083333333332
476,2010-12-18,113.16691666666667,,113.16691666666667
476,2010-12-19,112.78845833333332,,112.78845833333332
476,2010-12-20,114.12420833333334,,114.12420833333334
476,2010-12-21,114.93299999999999,,114.93299999999999
476,2010-12-22,113.41166666666668,,113.41166666666668
476,2010-12-23,112.97570833333333,,112.97570833333333
476,2010-12-24,111.88929166666667,,111.88929166666667
476,2010-12-25,111.22729166666666,,111.22729166666666
476,2010-12-26,116.58870833333333,,116.58870833333333
476,2010-12-27,114.73162500000001,,114.73162500000001
476,2010-12-28,112.09183333333334,,112.09183333333334
476,2010-12-29,110.76183333333334,,110.76183333333334
476,2010-12-30,109.66470833333334,,109.66470833333334
476,2010-12-31,119.736875,,119.736875
476,2011-01-01,120.45820833333333,,120.45820833333333
476,2011-01-02,127.09795833333334,,127.09795833333334
476,2011-01-03,112.85975,,112.85975
476,2011-01-04,111.07983333333334,,111.07983333333334
476,2011-01-05,117.99020833333333,,117.99020833333333
476,2011-01-06,114.39054166666666,,114.39054166666666
476,2011-01-07,112.81641666666667,,112.81641666666667
476,2011-01-08,95.355125,,95.355125
476,2011-01-09,66.66175,,66.66175
476,2011-01-10,90.54958333333333,,90.54958333333333
476,2011-01-11,103.89779166666666,,103.89779166666666
476,2011-01-12,106.210875,,106.210875
476,2011-01-13,105.032375,,105.032375
476,2011-01-14,104.13995833333333,,104.13995833333333
476,2011-01-15,101.06208333333332,,101.06208333333332
476,2011-01-16,102.46629166666666,,102.46629166666666
476,2011-01-17,102.239125,,102.239125
476,2011-01-18,101.55566666666665,,101.55566666666665
476,2011-01-19,115.965625,,115.965625
476,2011-01-20,137.16875000000002,,137.16875000000002
476,2011-01-21,137.20129166666666,,137.20129166666666
476,2011-01-22,137.02120833333333,,137.02120833333333
476,2011-01-23,136.616625,,136.616625
476,2011-01-24,136.51758333333333,,136.51758333333333
476,2011-01-25,137.37529166666667,,137.37529166666667
476,2011-01-26,137.34445833333334,,137.34445833333334
476,2011-01-27,137.33945833333334,,137.33945833333334
476,2011-01-28,137.38345833333332,,137.38345833333332
476,2011-01-29,137.31516666666667,,137.31516666666667
476,2011-01-30,137.437875,,137.437875
476,2011-01-31,137.552875,,137.552875
476,2011-02-01,137.32825,,137.32825
476,2011-02-02,137.27304166666667,,137.27304166666667
476,2011-02-03,137.04091666666667,,137.04091666666667
476,2011-02-04,133.073,,133.073
476,2011-02-05,137.004375,,137.004375
476,2011-02-06,137.80483333333333,,137.80483333333333
476,2011-02-07,138.27683333333331,,138.27683333333331
476,2011-02-08,104.45341666666667,,104.45341666666667
476,2011-02-09,64.958375,,64.958375
476,2011-02-10,96.27883333333334,,96.27883333333334
476,2011-02-11,129.46620833333333,,129.46620833333333
476,2011-02-12,102.39654166666666,,102.39654166666666
476,2011-02-13,69.18383333333334,,69.18383333333334
476,2011-02-14,106.16916666666667,,106.16916666666667
476,2011-02-15,136.09070833333334,,136.09070833333334
476,2011-02-16,136.93804166666666,,136.93804166666666
476,2011-02-17,136.68779166666667,,136.68779166666667
476,2011-02-18,136.83795833333332,,136.83795833333332
476,2011-02-19,135.84675000000001,,135.84675000000001
476,2011-02-20,135.95208333333332,,135.95208333333332
476,2011-02-21,136.7535,,136.7535
476,2011-02-22,136.881625,,136.881625
476,2011-02-23,137.199125,,137.199125
476,2011-02-24,82.76908333333334,,82.76908333333334
476,2011-02-25,64.77166666666666,,64.77166666666666
476,2011-02-26,64.36191666666666,,64.36191666666666
476,2011-02-27,64.22583333333334,,64.22583333333334
476,2011-02-28,64.58233333333334,,64.58233333333334
476,2011-03-01,88.58333333333333,,88.58333333333333
476,2011-03-02,136.63783333333333,,136.63783333333333
476,2011-03-03,136.43079166666666,,136.43079166666666
476,2011-03-04,110.53029166666666,,110.53029166666666
476,2011-03-05,85.946125,,85.946125
476,2011-03-06,74.30916666666667,,74.30916666666667
476,2011-03-07,102.77920833333333,,102.77920833333333
476,2011-03-08,132.81320833333334,,132.81320833333334
476,2011-03-09,132.624125,,132.624125
476,2011-03-10,132.37016666666668,,132.37016666666668
476,2011-03-11,132.76395833333333,,132.76395833333333
476,2011-03-12,132.65158333333332,,132.65158333333332
476,2011-03-13,131.05291666666668,,131.05291666666668
476,2011-03-14,132.94899999999998,,132.94899999999998
476,2011-03-15,121.43575,,121.43575
476,2011-03-16,44.918791666666664,,44.918791666666664
476,2011-03-17,65.193,,65.193
476,2011-03-18,103.34729166666666,,103.34729166666666
476,2011-03-19,132.23095833333335,,132.23095833333335
476,2011-03-20,99.96841666666667,,99.96841666666667
476,2011-03-21,33.90083333333333,,33.90083333333333
476,2011-03-22,-2.8092083333333338,,-2.8092083333333338
476,2011-03-23,32.14004166666667,,32.14004166666667
476,2011-03-24,61.432625,,61.432625
476,2011-03-25,86.17483333333332,,86.17483333333332
476,2011-03-26,116.7845,,116.7845
476,2011-03-27,117.41208333333333,,117.41208333333333
476,2011-03-28,116.75541666666668,,116.75541666666668
476,2011-03-29,116.78316666666666,,116.78316666666666
476,2011-03-30,116.93191666666667,,116.93191666666667
476,2011-03-31,117.04787499999999,,117.04787499999999
476,2011-04-01,117.21308333333333,,117.21308333333333
476,2011-04-02,117.382875,,117.382875
476,2011-04-03,117.04875,,117.04875
476,2011-04-04,116.84691666666667,,116.84691666666667
476,2011-04-05,116.82704166666667,,116.82704166666667
476,2011-04-06,115.98020833333334,,115.98020833333334
476,2011-04-07,116.45104166666665,,116.45104166666665
476,2011-04-08,116.28575000000001,,116.28575000000001
476,2011-04-09,116.05404166666666,,116.05404166666666
476,2011-04-10,116.24333333333334,,116.24333333333334